Weather History for Oklahoma City, OK

Change the Weather History Date:

Wednesday, February 13, 2013

  Actual Average Record
Temperature  
Mean Temperature 43 °F 43 °F  
Max Temperature 54 °F 54 °F 82 °F (1962)
Min Temperature 31 °F 32 °F -11 °F (1905)
Degree Days  
Heating Degree Days 22 22  
Month to date heating degree days 245 301  
Since 1 July heating degree days 2197 2454  
Moisture  
Dew Point 30 °F    
Average Humidity 66    
Maximum Humidity 96    
Minimum Humidity 35    
Precipitation  
Precipitation 0.00 in 0.06 in 0.76 in (1908)
Month to date precipitation 0.68 0.69  
Year to date precipitation 1.82 2.08  
Snow  
Snow 0.00 in 0.00 in 1.10 in (1968)
Month to date snowfall 2.3 0.8  
Since 1 July snowfall 3.7 6.1  
Snow Depth 1.00 in    
Sea Level Pressure  
Sea Level Pressure 30.05 in    
Wind  
Wind Speed 7 mph (West)    
Max Wind Speed 13 mph    
Max Gust Speed 16 mph    
Visibility 4 miles    
Events Fog    
T = Trace of Precipitation, MM = Missing Value Source: NWS Daily Summary

Daily Weather History Graph

Daily Weather History Graph

Search for Another Location

Airport:

Trip Planner

Search our weather history database for the weather conditions in past years. The results will help you decide how hot, cold, wet, or windy it might be!

Date:

Astronomy

Feb. 13, 2013 Rise Set
Actual Time 7:18 AM CST 6:10 PM CST
Civil Twilight 6:52 AM CST 6:37 PM CST
Nautical Twilight 6:22 AM CST 7:06 PM CST
Astronomical Twilight 5:53 AM CST 7:36 PM CST
Moon 8:58 AM CST (2/13) 10:03 PM CST (2/13)
Length of Visible Light 11h 44m
Length of Day
10h 52m
Waxing Crescent, 14% of the Moon is Illuminated
Feb 13
Waxing Crescent
Feb 17
First Quarter
Feb 25
Full
Mar 4
Last Quarter
Mar 11
New

Hourly Weather History & Observations

Time (CST) Temp. Windchill Dew Point Humidity Pressure Visibility Wind Dir Wind Speed Gust Speed Precip Events Conditions
12:22 AM 33.8 °F 27.0 °F 32.0 °F 93% 30.04 in 1.0 mi NNW 8.1 mph - N/A   Overcast
12:52 AM 33.1 °F 26.9 °F 32.0 °F 96% 30.07 in 1.0 mi NNW 6.9 mph - N/A   Overcast
1:02 AM 33.8 °F 27.7 °F 32.0 °F 93% 30.04 in 0.8 mi NNW 6.9 mph - N/A   Overcast
1:31 AM 33.8 °F 28.6 °F 32.0 °F 93% 30.05 in 0.2 mi WNW 5.8 mph - N/A Fog Fog
1:50 AM 33.8 °F 27.0 °F 32.0 °F 93% 30.06 in 0.2 mi West 8.1 mph - N/A Fog Fog
1:52 AM 33.1 °F 26.1 °F 32.0 °F 96% 30.08 in 0.2 mi West 8.1 mph - N/A Fog Fog
2:24 AM 32.0 °F 24.8 °F 30.2 °F 93% 30.05 in 0.2 mi WNW 8.1 mph - N/A Fog Fog
2:34 AM 32.0 °F 24.8 °F 30.2 °F 93% 30.05 in 0.2 mi WNW 8.1 mph - N/A Fog Fog
2:52 AM 32.0 °F 23.6 °F 30.9 °F 96% 30.08 in 0.2 mi WNW 10.4 mph - N/A Fog Fog
3:06 AM 32.0 °F 24.2 °F 30.2 °F 93% 30.05 in 0.2 mi West 9.2 mph - N/A Fog Fog
3:14 AM 32.0 °F 23.6 °F 30.2 °F 93% 30.05 in 0.2 mi WNW 10.4 mph - N/A Fog Fog
3:52 AM 32.0 °F 23.6 °F 30.9 °F 96% 30.07 in 0.2 mi West 10.4 mph - N/A   Overcast
4:37 AM 32.0 °F 23.6 °F 30.2 °F 93% 30.04 in 0.5 mi West 10.4 mph - N/A   Overcast
4:52 AM 32.0 °F 24.8 °F 30.9 °F 96% 30.07 in 0.5 mi WNW 8.1 mph - N/A   Overcast
5:52 AM 32.0 °F 26.4 °F 30.9 °F 96% 30.06 in 1.0 mi West 5.8 mph - N/A   Overcast
6:20 AM 32.0 °F 24.8 °F 30.2 °F 93% 30.04 in 0.5 mi WSW 8.1 mph - N/A   Overcast
6:52 AM 32.0 °F 26.4 °F 30.9 °F 96% 30.07 in 0.5 mi WSW 5.8 mph - N/A   Overcast
7:29 AM 30.2 °F 24.3 °F 30.2 °F 100% 30.05 in 0.2 mi WSW 5.8 mph - N/A Fog Light Freezing Fog
7:52 AM 32.0 °F 24.2 °F 30.0 °F 92% 30.09 in 0.2 mi SW 9.2 mph - N/A Fog Fog
8:52 AM 32.0 °F 24.8 °F 30.9 °F 96% 30.10 in 0.2 mi SW 8.1 mph - N/A Fog Fog
9:10 AM 32.0 °F 24.2 °F 30.2 °F 93% 30.07 in 0.5 mi SW 9.2 mph - N/A Fog Fog
9:27 AM 32.0 °F 24.8 °F 30.2 °F 93% 30.07 in 2.0 mi SW 8.1 mph - N/A   Overcast
9:50 AM 33.8 °F 27.7 °F 30.2 °F 87% 30.06 in 4.0 mi SW 6.9 mph - N/A   Scattered Clouds
9:52 AM 33.1 °F 26.9 °F 30.9 °F 92% 30.09 in 4.0 mi SW 6.9 mph - N/A   Scattered Clouds
10:52 AM 37.0 °F 33.3 °F 34.0 °F 89% 30.10 in 7.0 mi Variable 4.6 mph - N/A   Partly Cloudy
11:52 AM 43.0 °F 39.5 °F 36.0 °F 76% 30.09 in 8.0 mi SW 5.8 mph - N/A   Partly Cloudy
12:52 PM 46.9 °F - 36.0 °F 66% 30.05 in 10.0 mi SW 5.8 mph - N/A   Clear
1:52 PM 51.1 °F - 35.1 °F 54% 30.02 in 10.0 mi WSW 8.1 mph - N/A   Clear
2:52 PM 53.1 °F - 30.9 °F 43% 30.00 in 10.0 mi WSW 8.1 mph - N/A   Clear
3:52 PM 53.1 °F - 28.9 °F 40% 29.99 in 10.0 mi West 11.5 mph - N/A   Clear
4:52 PM 53.1 °F - 26.1 °F 35% 29.99 in 10.0 mi West 9.2 mph - N/A   Clear
5:52 PM 48.9 °F - 25.0 °F 39% 29.99 in 10.0 mi West 6.9 mph - N/A   Clear
6:52 PM 43.0 °F 40.3 °F 25.0 °F 49% 29.99 in 10.0 mi WSW 4.6 mph - N/A   Partly Cloudy
7:52 PM 39.9 °F 37.8 °F 25.0 °F 55% 30.00 in 10.0 mi SW 3.5 mph - N/A   Clear
8:52 PM 37.9 °F 35.5 °F 26.1 °F 62% 30.01 in 6.0 mi SW 3.5 mph - N/A   Haze
9:52 PM 39.0 °F 35.7 °F 26.1 °F 60% 30.01 in 8.0 mi WSW 4.6 mph - N/A   Clear
10:52 PM 41.0 °F 39.0 °F 26.1 °F 55% 30.01 in 10.0 mi West 3.5 mph - N/A   Clear
11:52 PM 33.1 °F 27.7 °F 26.1 °F 75% 30.02 in 9.0 mi SSW 5.8 mph - N/A   Clear